Wind_Speed
37 37 38 38 39 40 41 41 42 42 43 44 46 47 48 49 51 52 54 56 57 59 61 61 62 62 61 60 60 59 59 58 57 56 56 56 56 57
37 38 38 39 40 41 41 42 43 44 44 45 46 47 49 50 52 54 55 57 59 61 61 62 62 61 60 60 60 59 58 56 55 54 55 55 55 55
37 38 39 40 40 41 42 42 44 44 45 46 47 48 50 51 53 55 58 60 61 61 62 62 61 60 60 59 57 56 55 54 54 53 53 53 53 53
38 39 39 40 41 41 42 43 44 45 46 47 48 49 51 53 55 57 59 61 61 62 62 61 60 59 58 56 56 55 55 53 52 52 52 51 51 50
39 39 40 40 41 41 42 43 45 46 47 48 49 50 52 54 56 58 60 61 61 62 61 60 58 57 57 56 56 55 54 52 51 51 51 50 49 47
40 40 40 41 41 42 43 44 45 46 48 49 50 51 53 55 57 58 59 60 60 61 60 58 57 57 56 55 54 53 52 51 50 50 48 47 45 44
40 40 40 41 42 42 43 45 46 47 48 50 51 52 54 55 57 58 59 59 59 59 58 57 57 56 55 53 52 51 50 49 48 47 46 44 42 42
41 41 41 41 42 43 44 45 46 48 49 50 51 53 54 56 57 58 59 59 58 57 56 56 55 54 53 52 51 50 49 48 47 46 44 42 42 41
41 41 41 42 42 43 44 45 47 48 49 51 52 53 55 56 58 59 59 58 57 56 55 54 54 53 51 50 50 49 48 47 46 44 42 41 40 39
40 40 41 42 43 43 44 45 47 49 50 51 52 54 55 57 58 58 58 57 57 56 55 53 52 52 51 50 49 48 48 46 45 43 41 40 39 37
40 40 41 42 43 43 45 46 48 49 50 51 52 54 56 57 58 58 57 56 55 55 54 52 51 51 50 49 49 48 47 45 43 41 40 39 37 35
40 41 41 42 43 44 45 46 47 48 49 51 52 54 56 57 57 57 56 56 55 53 52 52 51 50 49 48 48 47 46 44 41 40 39 37 35 33
39 41 41 42 43 44 45 46 47 48 49 50 52 54 55 57 57 56 56 55 54 53 52 51 51 50 48 46 46 46 45 43 40 39 37 35 33 31
39 40 41 42 43 44 45 46 47 48 49 50 52 54 55 56 56 55 55 54 53 53 52 51 50 49 47 46 45 44 43 41 38 36 35 32 30 28
39 40 41 42 43 44 45 46 46 48 49 50 52 54 55 55 55 55 54 54 53 53 52 51 50 48 47 45 43 42 41 39 36 33 31 29 27 26
39 40 41 42 43 44 44 45 46 47 48 50 52 54 55 54 54 54 53 53 53 53 51 50 49 47 45 43 42 40 38 35 32 30 28 26 24 23
39 40 41 42 42 43 44 45 46 47 48 50 52 54 54 54 53 53 52 52 52 51 50 49 48 46 43 41 40 38 35 32 29 27 25 24 22 21
38 40 41 41 42 43 43 44 45 46 48 50 52 53 54 53 53 52 52 51 50 49 47 46 45 44 43 40 37 35 32 29 26 25 23 22 21 20
39 40 40 41 42 42 43 43 44 46 47 50 52 53 53 52 52 51 51 50 49 48 46 45 43 42 40 37 34 32 29 27 25 23 22 21 20 19
39 40 40 41 42 42 42 43 44 46 48 51 52 53 52 52 51 50 49 49 48 46 45 43 41 39 37 34 31 29 26 24 22 22 21 20 19 18
39 39 40 41 41 41 42 43 44 46 49 51 52 52 52 51 50 49 48 48 46 44 42 41 39 37 34 31 29 27 25 22 21 20 20 19 18 17
39 39 39 39 40 40 41 43 45 47 50 51 52 52 51 50 49 48 47 46 44 42 40 39 37 34 31 28 26 25 23 21 20 19 18 17 16 14
38 38 38 38 39 40 42 44 46 48 50 51 51 51 50 49 48 47 46 44 42 40 38 37 34 31 28 26 24 23 21 20 18 17 16 15 14 14
Wind_Direction
296 298 299 300 301 303 304 305 306 306 307 308 308 309 309 309 310 310 310 310 310 310 310 309 308 308 308 306 305 304 303 301 298 296 294 292 290 287
295 297 298 299 301 303 304 305 305 306 307 308 309 309 310 310 311 311 311 311 311 311 311 310 310 310 308 307 306 306 304 303 300 298 296 294 292 290
295 297 298 299 301 302 303 304 305 306 308 309 309 310 311 311 312 312 312 312 312 312 311 311 311 310 309 309 308 308 307 305 302 300 299 297 294 291
295 297 298 299 301 302 303 304 305 307 308 309 310 310 311 312 312 313 313 313 313 313 313 312 312 311 311 310 310 309 308 306 304 302 301 299 296 293
295 296 297 299 301 302 303 305 306 307 308 309 310 311 312 312 313 314 314 314 314 314 314 313 312 312 312 311 310 309 308 307 306 304 303 301 298 295
295 295 296 298 300 302 303 304 305 307 309 310 311 312 312 313 314 315 315 316 315 315 314 314 313 313 313 312 311 311 309 308 307 306 305 303 300 298
293 295 296 298 300 301 302 303 305 307 309 310 312 312 313 314 315 316 317 317 316 316 315 315 314 314 313 313 312 312 310 310 309 308 306 304 302 300
292 294 296 298 300 301 302 304 306 308 309 311 313 314 314 315 316 317 318 317 317 317 316 315 315 314 314 314 313 312 312 311 310 309 307 305 304 301
292 294 296 298 300 301 303 305 307 309 310 312 313 315 316 317 318 318 319 319 318 318 317 317 316 316 315 315 314 314 314 313 312 310 309 307 306 304
293 295 296 298 300 302 304 306 308 310 311 313 314 316 317 318 319 319 320 320 319 319 319 319 318 317 317 316 316 316 315 314 313 311 310 309 307 305
292 294 297 298 300 302 304 306 308 310 311 313 315 316 317 318 319 320 320 320 320 320 319 319 319 318 317 317 317 316 316 315 314 312 311 309 308 306
292 294 296 298 300 302 304 306 308 310 312 314 315 317 318 319 320 320 321 321 321 320 320 319 319 318 317 317 317 317 317 316 315 314 313 311 309 307
292 294 297 299 301 303 305 307 309 311 313 314 316 317 319 320 320 321 321 321 322 322 321 320 320 319 318 318 317 317 317 317 316 315 315 314 311 309
293 295 298 300 302 304 306 308 309 311 313 315 316 318 319 320 321 321 321 322 323 323 322 321 320 320 318 318 318 318 319 318 317 316 316 316 314 312
294 296 298 301 303 305 307 308 310 312 314 315 317 318 319 320 321 321 321 322 323 324 323 322 321 321 320 319 319 319 319 319 317 316 317 317 317 315
295 297 299 301 304 306 308 309 311 313 314 315 317 318 320 320 321 322 322 322 323 324 323 323 323 323 322 321 321 321 321 321 320 319 319 320 319 318
295 298 300 302 305 307 308 310 312 313 314 316 318 320 321 321 321 322 322 323 324 324 323 324 324 324 324 323 323 323 323 323 322 321 321 322 322 322
295 298 300 303 305 307 309 310 312 314 316 317 319 321 322 322 322 323 323 323 324 325 324 324 325 325 325 325 325 324 324 324 324 324 324 324 324 325
296 299 301 303 306 307 309 311 313 315 316 318 320 321 322 322 322 323 323 324 324 325 325 325 326 326 326 325 325 325 325 325 326 326 326 326 326 327
297 299 301 304 306 308 310 311 313 315 317 319 321 322 322 322 322 323 323 324 324 325 325 326 326 327 327 327 326 326 327 327 327 328 329 329 329 330
297 299 302 304 306 308 310 312 314 316 318 320 321 322 322 322 322 323 323 324 324 325 325 325 326 327 328 328 328 328 328 329 328 329 331 332 333 334
297 299 301 304 306 308 310 312 315 317 318 320 321 321 322 322 322 322 323 323 323 324 325 326 327 328 328 327 327 328 328 329 330 331 334 337 339 340
297 298 301 304 306 308 310 312 315 317 319 320 321 322 321 321 322 322 323 323 324 324 325 325 326 327 327 326 327 328 329 330 333 336 339 342 343 343
Height
5741 5737 5734 5729 5725 5721 5716 5711 5707 5702 5697 5690 5684 5677 5670 5664 5657 5650 5642 5634 5626 5618 5610 5601 5592 5583 5574 5566 5558 5550 5542 5536 5529 5524 5519 5514 5510 5506
5732 5729 5725 5721 5717 5712 5707 5702 5697 5692 5687 5681 5674 5668 5661 5653 5646 5638 5630 5622 5613 5604 5595 5586 5577 5568 5559 5550 5542 5534 5526 5519 5513 5507 5502 5496 5492 5487
5724 5720 5717 5712 5708 5703 5698 5693 5688 5682 5677 5671 5664 5657 5650 5643 5635 5626 5618 5609 5600 5590 5581 5572 5562 5553 5544 5535 5527 5519 5512 5504 5498 5492 5485 5480 5475 5470
5715 5712 5708 5704 5699 5694 5689 5684 5678 5673 5667 5662 5655 5647 5640 5632 5624 5615 5605 5596 5586 5577 5567 5557 5548 5538 5530 5521 5513 5506 5498 5491 5484 5477 5471 5465 5459 5454
5707 5703 5699 5695 5690 5685 5680 5675 5669 5663 5657 5651 5645 5637 5629 5621 5612 5603 5592 5582 5572 5563 5553 5543 5534 5525 5517 5508 5500 5492 5484 5477 5470 5463 5456 5450 5444 5439
5698 5694 5690 5686 5681 5676 5671 5666 5660 5654 5647 5641 5634 5627 5618 5609 5600 5591 5581 5570 5560 5550 5539 5530 5521 5512 5504 5495 5488 5479 5472 5464 5457 5450 5443 5436 5431 5426
5688 5685 5681 5676 5672 5667 5662 5656 5650 5644 5638 5631 5624 5616 5608 5599 5589 5580 5570 5560 5549 5538 5528 5518 5509 5501 5492 5483 5475 5467 5459 5452 5444 5437 5430 5424 5419 5414
5679 5675 5671 5667 5662 5657 5652 5646 5641 5634 5627 5621 5613 5605 5596 5587 5578 5567 5557 5549 5540 5530 5518 5508 5498 5489 5480 5472 5464 5455 5448 5440 5433 5426 5419 5413 5407 5402
5670 5666 5662 5657 5653 5648 5642 5637 5630 5623 5617 5610 5602 5593 5585 5577 5567 5557 5545 5535 5526 5516 5506 5497 5487 5478 5469 5461 5452 5445 5437 5429 5422 5415 5408 5402 5396 5391
5660 5657 5653 5648 5643 5638 5633 5627 5620 5613 5606 5599 5592 5583 5574 5564 5555 5545 5534 5524 5514 5504 5494 5486 5477 5468 5459 5450 5442 5434 5426 5418 5411 5404 5398 5392 5386 5381
5651 5647 5643 5639 5634 5629 5623 5617 5610 5603 5595 5588 5580 5571 5562 5553 5543 5533 5523 5514 5504 5494 5484 5476 5467 5458 5449 5440 5431 5423 5416 5408 5401 5394 5388 5382 5376 5371
5641 5637 5633 5629 5624 5618 5613 5607 5601 5593 5585 5578 5569 5560 5551 5542 5532 5522 5513 5503 5494 5485 5475 5466 5457 5449 5441 5432 5423 5414 5406 5398 5391 5385 5379 5373 5367 5362
5631 5627 5623 5619 5614 5608 5602 5597 5590 5583 5576 5568 5560 5550 5541 5531 5521 5511 5502 5493 5483 5474 5465 5457 5448 5438 5430 5423 5414 5405 5397 5390 5383 5376 5370 5364 5359 5354
5622 5618 5614 5609 5604 5598 5592 5586 5580 5573 5566 5558 5550 5541 5531 5521 5511 5501 5492 5482 5473 5464 5455 5446 5437 5429 5420 5413 5405 5397 5389 5381 5375 5368 5362 5357 5352 5347
5612 5608 5604 5599 5594 5588 5582 5576 5570 5563 5555 5548 5539 5531 5521 5511 5501 5491 5482 5472 5463 5454 5445 5436 5427 5419 5410 5403 5396 5389 5381 5374 5367 5361 5355 5350 5346 5341
5602 5598 5594 5589 5584 5579 5573 5566 5560 5553 5545 5538 5529 5520 5511 5501 5492 5482 5473 5464 5454 5444 5435 5426 5418 5410 5402 5394 5387 5380 5373 5367 5361 5355 5349 5345 5341 5336
5592 5588 5584 5579 5574 5569 5563 5557 5550 5543 5536 5528 5519 5510 5501 5492 5482 5473 5464 5455 5446 5437 5427 5418 5409 5401 5394 5387 5380 5373 5366 5361 5355 5350 5345 5340 5336 5333
5583 5579 5574 5570 5565 5559 5553 5547 5540 5533 5526 5518 5510 5501 5491 5482 5473 5464 5455 5447 5438 5429 5421 5412 5404 5395 5387 5380 5374 5368 5361 5356 5350 5346 5341 5337 5333 5329
5573 5569 5564 5560 5555 5549 5544 5538 5531 5524 5517 5509 5500 5491 5482 5473 5464 5456 5447 5438 5430 5421 5413 5405 5397 5389 5382 5375 5369 5363 5357 5351 5347 5342 5338 5334 5330 5326
5563 5559 5555 5550 5545 5540 5534 5528 5522 5515 5507 5499 5491 5482 5473 5464 5456 5447 5439 5430 5422 5414 5406 5398 5391 5383 5376 5370 5364 5358 5353 5348 5343 5339 5335 5331 5327 5323
5553 5549 5545 5540 5535 5530 5525 5519 5512 5505 5498 5490 5481 5473 5464 5456 5447 5439 5431 5423 5415 5407 5399 5392 5385 5378 5371 5365 5360 5354 5350 5345 5341 5337 5333 5329 5325 5321
5543 5539 5535 5530 5526 5521 5515 5509 5503 5496 5488 5480 5472 5463 5455 5447 5439 5431 5423 5415 5407 5400 5392 5386 5379 5372 5366 5361 5356 5351 5347 5342 5338 5334 5330 5327 5323 5320
5533 5529 5525 5521 5516 5511 5506 5500 5493 5486 5478 5470 5462 5454 5446 5438 5430 5422 5415 5407 5400 5393 5386 5380 5373 5367 5362 5357 5353 5348 5344 5340 5336 5332 5329 5325 5322 5319